Location: DARK SKY Beskydy - Park tmavé oblohy, www.darkskybeskydy.cz
(49.4926°N, 18.5016°E)
Time: 12:48:53
(UTC+02:00)

Vanguard 1 - Pass Details

Date: 23 February 2024
Orbit: 653 x 3825 km, 34.2° (Epoch: 12 April)

Event Time Altitude Azimuth Distance (km) Brightness Sun altitude
Rises 19:47:59 0° 226° (SW) 5,611 14.3 -24.9°
Reaches altitude 10° 19:51:23 10° 219° (SW) 4,981 13.9 -25.5°
Maximum altitude 20:05:39 42° 155° (SSE) 4,141 12.8 -27.7°
Enters shadow 20:11:35 36° 125° (SE) 4,701 12.9 -28.6°
Drops below altitude 10° 20:25:52 10° 95° (E) 6,931 - -30.7°
Sets 20:31:43 0° 90° (E) 7,926 - -31.6°
